(205107) = 1999 RK256 = 1999 TP267 = 2003 RM4

Discovered at Socorro on 1999-10-03 by LINEAR.

Orbit

Orbit type: Main Belt

Note: WebGL enabled browser required.

epoch2023-02-25.0
epoch JD2460000.5
perihelion date2020-03-23.07597
perihelion JD2458931.57597
argument of perihelion (°)52.68569
ascending node (°)264.72924
inclination (°)12.07781
eccentricity0.2077096
perihelion distance (AU)2.0551285
Tisserand w.r.t. Jupiter3.4
ΔV w.r.t. Earth (km/sec)9.7
semimajor axis (AU)2.5939083
mean anomaly (°)252.18472
mean daily motion (°/day)0.23592390
aphelion distance (AU)3.133
period (years)4.18
P-vector [x]0.71874295
P-vector [y]-0.68555704
P-vector [z]-0.11584519
Q-vector [x]0.66332249
Q-vector [y]0.62619519
Q-vector [z]0.40973511
absolute magnitude16.22
phase slope0.15
uncertainty0
referenceMPO 745323
observations used499
oppositions14
arc length (days)8653
first opposition used1999
last opposition used2023
residual rms (arc-secs)0.81
perturbers coarse indicatorM-v
perturbers precise indicator003Ek
first observation date used1999-09-08.0
last observation date used2023-05-18.0
computer nameMPCLINUX
Minimum Orbit Intersection Distances (in AU)
for orbit epoch: 2460000.5, reference: E2023-K54
Mercury1.64443
Venus1.35129
Earth1.06444
Mars0.70424
Jupiter2.19711
Saturn6.05654
Uranus15.4325
Neptune27.174

Observations

504 total observations over interval: 1999 09 08.39911 – 2023 05 18.293811
These data are available for download (format description).

Date (UT) J2000 RA J2000 Dec Magn Location Ref
1999 09 08.39911 00 29 07.30 +25 34 54.3 19.1   704 – Lincoln Laboratory ETS, New Mexico MPS 27604
1999 09 08.42643 00 29 06.16 +25 34 53.8 20.1   704 – Lincoln Laboratory ETS, New Mexico MPS 27604
1999 09 08.43998 00 29 05.59 +25 34 55.0 20.2   704 – Lincoln Laboratory ETS, New Mexico MPS 27604
1999 09 08.45345 00 29 05.07 +25 34 54.1 19.4   704 – Lincoln Laboratory ETS, New Mexico MPS 27604
1999 09 13.33303 00 25 40.30 +25 31 14.4 19.0 R 703 – Catalina Sky Survey MPC 42219
1999 09 13.34410 00 25 39.78 +25 31 12.7 18.6 R 703 – Catalina Sky Survey MPC 42219
1999 09 13.35516 00 25 39.29 +25 31 11.0 18.9 R 703 – Catalina Sky Survey MPC 42219
1999 09 13.36630 00 25 38.77 +25 31 10.5 19.2 R 703 – Catalina Sky Survey MPC 42219
1999 10 03.23543 00 09 07.80 +23 50 33.6 18.6   704 – Lincoln Laboratory ETS, New Mexico MPS 15466
1999 10 03.24588 00 09 07.22 +23 50 29.1 19.6   704 – Lincoln Laboratory ETS, New Mexico MPS 15466
1999 10 03.25634 00 09 06.74 +23 50 24.0 19.9   704 – Lincoln Laboratory ETS, New Mexico MPS 15466
1999 10 03.26679 00 09 06.18 +23 50 17.9 19.4   704 – Lincoln Laboratory ETS, New Mexico MPS 15466
1999 10 03.27724 00 09 05.69 +23 50 14.2 20.0   704 – Lincoln Laboratory ETS, New Mexico MPS 15466
1999 10 12.19704 00 02 15.39 +22 29 22.8 18.9   704 – Lincoln Laboratory ETS, New Mexico MPS 15466
1999 10 12.21098 00 02 14.75 +22 29 14.5 18.9   704 – Lincoln Laboratory ETS, New Mexico MPS 15466
1999 10 12.22528 00 02 14.11 +22 29 05.3 19.3   704 – Lincoln Laboratory ETS, New Mexico MPS 15466
1999 10 12.24086 00 02 13.43 +22 28 57.1 19.2   704 – Lincoln Laboratory ETS, New Mexico MPS 15466
1999 10 12.25476 00 02 12.81 +22 28 48.4 19.4   704 – Lincoln Laboratory ETS, New Mexico MPS 15466
2003 07 04.38011 22 28 33.27 +05 55 00.9 19.8   704 – Lincoln Laboratory ETS, New Mexico MPS 90380
2003 07 04.39006 22 28 33.37 +05 55 08.0 19.7   704 – Lincoln Laboratory ETS, New Mexico MPS 90380
2003 07 04.40004 22 28 33.51 +05 55 15.0 19.4   704 – Lincoln Laboratory ETS, New Mexico MPS 90380
2003 07 29.31737 22 25 51.33 +10 09 29.2 19.1   704 – Lincoln Laboratory ETS, New Mexico MPS 90380
2003 07 29.32758 22 25 50.99 +10 09 33.2 19.8   704 – Lincoln Laboratory ETS, New Mexico MPS 90380
2003 07 29.33811 22 25 50.65 +10 09 38.7 19.5   704 – Lincoln Laboratory ETS, New Mexico MPS 90380
2003 09 03.29772 21 58 27.00 +11 09 39.5 18.0   704 – Lincoln Laboratory ETS, New Mexico MPS 84165
2003 09 03.30976 21 58 26.44 +11 09 37.2 18.6   704 – Lincoln Laboratory ETS, New Mexico MPS 84165
2003 09 03.32130 21 58 25.82 +11 09 33.7 18.6   704 – Lincoln Laboratory ETS, New Mexico MPS 84165
2003 09 03.33283 21 58 25.30 +11 09 31.0 18.4   704 – Lincoln Laboratory ETS, New Mexico MPS 84165
2003 09 03.34437 21 58 24.70 +11 09 28.7 18.2   704 – Lincoln Laboratory ETS, New Mexico MPS 84165
2003 09 04.26346 21 57 41.81 +11 05 46.5 18.9   704 – Lincoln Laboratory ETS, New Mexico MPS 84165
2003 09 04.27625 21 57 41.17 +11 05 42.6 19.0   704 – Lincoln Laboratory ETS, New Mexico MPS 84165
2003 09 04.28883 21 57 40.58 +11 05 38.7 18.9   704 – Lincoln Laboratory ETS, New Mexico MPS 84165
2003 09 04.30171 21 57 39.95 +11 05 35.4 19.0   704 – Lincoln Laboratory ETS, New Mexico MPS 84165
2003 09 17.11443 21 49 24.96 +09 56 52.5 17.6 R 699 – Lowell Observatory-LONEOS MPS 85033
2003 09 17.13113 21 49 24.51 +09 56 46.8   699 – Lowell Observatory-LONEOS MPS 85033
2003 09 17.14773 21 49 23.94 +09 56 40.0   699 – Lowell Observatory-LONEOS MPS 85033
2003 09 17.16444 21 49 23.40 +09 56 33.7   699 – Lowell Observatory-LONEOS MPS 85033
2003 09 18.11048 21 48 56.62 +09 50 33.7 17.4 R 699 – Lowell Observatory-LONEOS MPS 85033
2003 09 18.12711 21 48 56.22 +09 50 26.9   699 – Lowell Observatory-LONEOS MPS 85033
2003 09 18.14384 21 48 55.68 +09 50 20.2   699 – Lowell Observatory-LONEOS MPS 85033
2003 09 18.16047 21 48 55.16 +09 50 13.5   699 – Lowell Observatory-LONEOS MPS 85033
2003 09 20.23309 21 48 01.51 +09 36 45.4 19.1   704 – Lincoln Laboratory ETS, New Mexico MPS 85033
2003 09 20.24542 21 48 01.17 +09 36 40.2 19.4   704 – Lincoln Laboratory ETS, New Mexico MPS 85033
2003 09 20.25805 21 48 00.88 +09 36 36.2 19.3   704 – Lincoln Laboratory ETS, New Mexico MPS 85033
2003 09 20.27028 21 48 00.39 +09 36 32.7 19.8   704 – Lincoln Laboratory ETS, New Mexico MPS 85033
2003 09 20.28253 21 48 00.17 +09 36 27.1 19.7   704 – Lincoln Laboratory ETS, New Mexico MPS 85033
2003 09 21.17311 21 47 40.00 +09 30 31.8 18.5   644 – Palomar Mountain/NEAT MPS 86050
2003 09 21.19451 21 47 39.48 +09 30 23.3 18.6   644 – Palomar Mountain/NEAT MPS 86050
2003 09 21.21580 21 47 38.95 +09 30 14.8 18.6   644 – Palomar Mountain/NEAT MPS 86050
2003 09 27.13661 21 46 00.36 +08 50 10.7 19.4 V 291 – LPL/Spacewatch II MPS 86050
2003 09 27.15997 21 46 00.05 +08 50 01.2 19.0 V 291 – LPL/Spacewatch II MPS 86050
2003 09 27.18342 21 45 59.73 +08 49 51.6 19.2 V 291 – LPL/Spacewatch II MPS 86050
2004 12 11.40217 07 08 08.43 +18 35 27.8 20.6 V 691 – Steward Observatory, Kitt Peak-Spacewatch MPS 121556
2004 12 11.42822 07 08 07.04 +18 35 24.2 20.7 V 691 – Steward Observatory, Kitt Peak-Spacewatch MPS 121556
2004 12 11.45413 07 08 05.67 +18 35 20.2 21.0 V 691 – Steward Observatory, Kitt Peak-Spacewatch MPS 121556
2007 06 13.70978 20 17 57.98 -12 14 52.9 18.8 V E12 – Siding Spring Survey MPS 210682
2007 06 13.72304 20 17 57.84 -12 14 45.4 19.5 V E12 – Siding Spring Survey MPS 210682
2007 06 13.73624 20 17 57.66 -12 14 37.6 19.2 V E12 – Siding Spring Survey MPS 210682
2007 06 26.35911 20 13 02.07 -10 23 49.5   691 – Steward Observatory, Kitt Peak-Spacewatch MPS 211359
2007 06 26.37677 20 13 01.42 -10 23 40.7   691 – Steward Observatory, Kitt Peak-Spacewatch MPS 211359
2007 06 26.39443 20 13 00.75 -10 23 32.0   691 – Steward Observatory, Kitt Peak-Spacewatch MPS 211359
2008 11 22.31005 06 13 26.20 +24 15 36.2   691 – Steward Observatory, Kitt Peak-Spacewatch MPS 266354
2008 11 22.33119 06 13 25.19 +24 15 32.5   691 – Steward Observatory, Kitt Peak-Spacewatch MPS 266354
2008 11 22.34638 06 13 24.44 +24 15 29.4   691 – Steward Observatory, Kitt Peak-Spacewatch MPS 266354
2008 12 22.27840 05 43 36.48 +22 26 48.1 19.2 V G96 – Mt. Lemmon Survey MPS 269173
2008 12 22.28282 05 43 36.19 +22 26 47.1 19.4 V G96 – Mt. Lemmon Survey MPS 269173
2008 12 22.28737 05 43 35.86 +22 26 46.2 19.5 V G96 – Mt. Lemmon Survey MPS 269173
2008 12 22.29186 05 43 35.58 +22 26 44.8 19.3 V G96 – Mt. Lemmon Survey MPS 269173
2009 01 20.23530 05 19 41.88 +20 41 07.8 19.9 V G96 – Mt. Lemmon Survey MPS 272172
2009 01 20.24299 05 19 41.66 +20 41 06.8 20.0 V G96 – Mt. Lemmon Survey MPS 272172
2009 01 20.25072 05 19 41.41 +20 41 05.5 20.0 V G96 – Mt. Lemmon Survey MPS 272172
2009 01 20.25850 05 19 41.16 +20 41 03.8 20.2 V G96 – Mt. Lemmon Survey MPS 272172
2010 02 15.455119 10 29 23.061 -08 28 31.76 21.45 g F51 – Pan-STARRS 1, Haleakala MPS 320537
2010 02 15.464180 10 29 22.558 -08 28 30.62 21.11 g F51 – Pan-STARRS 1, Haleakala MPS 320537
2010 02 24.370322 10 21 29.254 -08 02 18.64 20.56 i F51 – Pan-STARRS 1, Haleakala MPS 320537
2010 02 24.380175 10 21 28.697 -08 02 16.35 20.50 i F51 – Pan-STARRS 1, Haleakala MPS 320537
2010 03 12.381411 10 07 37.830 -06 46 23.39 20.52 r F51 – Pan-STARRS 1, Haleakala MPS 338787
2010 03 12.389706 10 07 37.422 -06 46 20.64 20.38 r F51 – Pan-STARRS 1, Haleakala MPS 338787
2010 03 26.02515 09 58 16.57 -05 26 21.5 19.9 Y W91 – VHS-VISTA, Cerro Paranal MPS 678030
2010 03 26.04068 09 58 16.03 -05 26 16.2 20.4 Y W91 – VHS-VISTA, Cerro Paranal MPS 678030
2010 03 26.04448 09 58 15.90 -05 26 14.4 19.8 J W91 – VHS-VISTA, Cerro Paranal MPS 678030
2010 03 26.05248 09 58 15.61 -05 26 11.8 19.1 H W91 – VHS-VISTA, Cerro Paranal MPS 678030
2012 11 17.28067 04 52 12.80 +28 07 10.8   691 – Steward Observatory, Kitt Peak-Spacewatch MPS 444652
2012 11 17.29864 04 52 11.71 +28 07 06.1   691 – Steward Observatory, Kitt Peak-Spacewatch MPS 444652
2012 11 17.31670 04 52 10.58 +28 07 00.8   691 – Steward Observatory, Kitt Peak-Spacewatch MPS 444652
2012 12 03.23851 04 35 13.30 +26 36 05.6 19.3 V G96 – Mt. Lemmon Survey MPS 445751
2012 12 03.24561 04 35 12.84 +26 36 03.1 19.2 V G96 – Mt. Lemmon Survey MPS 445751
2012 12 03.25262 04 35 12.37 +26 36 00.3 19.1 V G96 – Mt. Lemmon Survey MPS 445751
2012 12 03.25966 04 35 11.94 +26 35 57.4 18.9 V G96 – Mt. Lemmon Survey MPS 445751
2012 12 03.30675 04 35 08.77 +26 35 39.6 19.4 V G96 – Mt. Lemmon Survey MPS 445751
2012 12 03.31419 04 35 08.26 +26 35 36.7 19.3 V G96 – Mt. Lemmon Survey MPS 445751
